Погода Маресале

Погода Маресале : погода сейчас, прогноз погоды и архив. Всё, что Вы хотите узнать о погоде Маресале!

Хотите узнать прогноз погоды Маресале? Тогда Вам сюда: Погода Маресале

Поиск расширенной информации на нашем сайте:

Другие новости

Новости СМИ2

Главная страница сайта

Новости сайта

02.10.2013

Напоминаем, что на нашем новом сайте вы можете получить высокодетализированные прогнозы погоды по пунктам России, СНГ и мира (включающие важные для авиации метеовеличины, такие как направление и скорость ветра, видимость, явления погоды, количество и форма облачности, нижняя и верхняя граница облачности), а также ознакомиться с разнообразными материалами по авиационной метеорологии и подборкой полезных ссылок на эту тему.

Сайт Метеоцентр.Азия посвящён разработке технологий оптимизации авиаметеорологического обслуживания, включая проектирование и перспективное создание нескольких автоматизированных авиаметеорологических систем:
- система выпуска высокодетальных прогностических карт явлений погоды для нижнего воздушного пространства по России и ближнему зарубежью;
- система верификации прогнозов TAF (выпускаемых синоптиками официальных АМСГ РФ и ближнего зарубежья) и AUTOTAF (выпускаемых сайтом Метеоцентр.Азия) - выявление ошибок, онлайн-сопоставление с фактической погодой METAR, автоматическое внесение коррективов в прогнозы при резком отклонении фактической погоды от прогноза, подсчёт оправдываемости прогнозов по элементам и в целом;
- система обработки, анализа и отображения авиаметеорологической информации для применения провайдерами метеорологической информации.

Рекомендуем: Очень заманчивое предложение:. Частотный преобразователь 5.5 кВт - широкий выбор!

Погода Маресале - сегодня

Время (UTC), дата Ветер
(°,м/с) 
Видим.   Явления Облачность Т
(°С)
Тd
(°С)
f(%) Тe
(°С)
Pmin
(гПа)
dP
(гПа)
Po
(мм)
O2
(г/м3)
Тmin Tmax R s Состояние
почвы
03 24.05.17 110 (В) 8-11{11}  10 км  позёмок  8/3 600 м средняя, верхняя 
[Sc|Ac trans|Ci fib]
-7.5 -8.6 92 -13  1003.5  -1.8  750  312  -8.3      26  неравномерный
сухой снег
100% 
06 24.05.17 140 (ЮВ) 10-12{12}  10 км  позёмок  3/1 600 м средняя 
[Sc|Ac trans]
-5 -6.7 88 -11  1002.6  -0.8  750  308           
09 24.05.17 130 (ЮВ) 10-12{13}  10 км  позёмок  10/10 400 м 
[Sc]
-4 -5.4 90 -10  1001.9  -0.7  749  307           
12 24.05.17 130 (ЮВ) 10-12{13}  10 км  позёмок  9/9 360 м 
[Sc]
-3.1 -4.2 92 -9  1001.7  -0.2  749  306           
15 24.05.17 120 (ЮВ) 9-11{12}  10 км  позёмок  9/9 870 м 
[Sc]
-3.1 -3.6 96 -8  1000.9  -0.8  748  305    -2.9       
18 24.05.17 130 (ЮВ) 7{11}  10 км  позёмок  9/9 960 м 
[Sc]
-3.7 -3.9 99 -8  1000.6  -0.4  748  306           
21 24.05.17 160 (Ю) 2000 м  снег  10/10 100 м 
[Frnb|Ns]
-2.9 -2.9 100 -7  1000  -0.5  748  305           
03 25.05.17 220 (ЮЗ) 0500 м  туман{снег}  ?/?  
-3.1 -3.1 100 -4  1000.8  0.4  748  305  -3.8    0.6  26  неравномерный
сухой снег
100% 
06 25.05.17 150 (ЮВ) 2000 м  дымка{снег, туман}  4/4 200 м 
[St]
-2.9 -3.1 99 -5  1001.1  0.2  748  305           
09 25.05.17 110 (В) 2000 м  дымка  10/10 120 м 
[St]
-2.3 -2.5 99 -5  1001.7  0.7  749  305           
12 25.05.17 150 (ЮВ) 2000 м  дымка  10/10 120 м 
[St]
-0.3 -0.9 96 -2  1002.7  750  302           
15 25.05.17 240 (ЮЗ) 2000 м  слаб. ливневой снег  10/10 100 м кучево-дожд. 
[Cb cap]
-1.1 -1.1 100 -2  1003.5  0.8  750  304    -0.3  0.0     
18 25.05.17 320 (СЗ) 2000 м  слаб. ливневой снег  10/10 120 м кучево-дожд. 
[Cb cap]
-3.1 -3.1 100 -7  1004.7  1.2  751  306           
21 25.05.17 280 (З) 2000 м  слаб. ливневой снег  10/10 300 м кучево-дожд. 
[Cb cap]
-3 -3 100 -5  1005.8  1.1  752  307           
00 26.05.17 280 (З) 2000 м  слаб. ливневой снег  10/10 360 м кучево-дожд. 
[Cb cap]
-3.4 -5.3 87 -7  1007.3  1.5  753  308           
03 26.05.17 270 (З) 10 км  {ливн. осадки}  10/10 630 м кучево-дожд. 
[Cb cap]
-3.6 -5 90 -8  1008.5  1.1  754  308  -3.6    0.8  25  неравномерный
мокрый или
старый снег
100% 
06 26.05.17 250 (З) 10 км  {ливн. осадки}  10/10 330 м 
[Sc]
-3.5 -5.9 83 -6  1009.5  1.1  755  309  -3.9         
09 26.05.17 240 (ЮЗ) 10 км    10/10 360 м 
[Sc]
-3.2 -5.7 83 -5  1010.4  0.9  755  309           
12 26.05.17 210 (ЮЗ) 10 км    10/10 420 м 
[Sc]
-2.9 -6.2 78 -2  1011.2  0.8  756  309           
18 26.05.17 080 (В) 10 км    4/4 600 м 
[Sc]
-7.1 -8.4 90 -11  1010.2  -0.8  755  313           
21 26.05.17 080 (В) 10 км    3/3 600 м 
[Sc]
-8.1 -8.8 95 -13  1009  -1.2  754  314           
03 27.05.17 080 (В) 11-13{13}  2000 м  слаб. ливневой снег  10/10 330 м кучево-дожд. 
[Cb cap]
-3.6 -3.9 98 -10  1007.1  -0.8  753  308  -8.9    0.0  25  неравномерный
сухой снег
100% 
21 28.05.17 240 (ЮЗ) 10 км    10/4 600 м средняя 
[Sc|Ac As]
-2.8 -4.6 87 -6  1001.5  0.1  749  305           
03 29.05.17 250 (З) 2000 м  слаб. ливневой снег  10/10 330 м кучево-дожд. 
[Cb cap]
-2.3 -2.6 98 -6  1001.7  -0.3  749  305  -3.4    32  неравномерный
сухой снег
100% 
06 29.05.17 260 (З) 10 км  {ливн. осадки}  10/6 600 м средняя 
[Sc|Ac As]
-1 -2.7 88 -3  1002.4  0.7  749  303           
Время (UTC), дата Ветер
(°,м/с) 
Видим.   Явления Облачность Т
(°С)
Тd
(°С)
f(%) Тe
(°С)
Pmin
(гПа)
dP
(гПа)
Po
(мм)
O2
(г/м3)
Тmin Tmax R s Состояние
почвы

Для получения пояснительной информации подведите курсор к названию столбца.

ПОГОДА Маресале - архив

Всё, что Вы хотите узнать о погоде Маресале - удобно и подробно!

Выберите нужную дату (начиная с 1 января 2015* года) и нажмите кнопку "Найти".
Будут отображены архивные сводки погоды по пункту Маресале, начиная с указанной даты.


Отображать данные в формате CSV (для использования в таблицах Excel)


Внимание! Наш архив погоды предназначен исключительно для личного некоммерческого использования в познавательных целях. Если Вам необходимы официальные справки о состоянии погоды (для производственных, юридических, коммерческих и т.п. целей), обращайтесь в органы Росгидромета.

*Примечание: данная дата относится к архиву по метеостанциям СССР (Россия, СНГ, Балтия).
Архив по метеостанциям Зарубежной Европы и Азии (кроме Китая) хранится 10 дней, по другим регионам земного шара (Китай, Африка, Америка, Австралия, Океания) - 1 день.

Маресале - район местоположения метеостанции


Название, широта, долгота, высота метеостанции:
Маресале 69.7°ш. 66.8°д. 25 м над ур. моря [Российская Федерация]

Дополнительная информация

В oтличие oт бoльшинства пoгoдных сайтoв мы публикуем пoдрoбную метеoинфoрмацию в детальнoм прoфессиoнальнoм фoрмате.

Характеристики температуры и влажнoсти вoздуха измеряются на высoте 2 м в тени вдали oт зданий и деревьев.
Скoрoсть ветра измеряется на высoте 10 м (на урoвне рoста челoвека скoрoсть ветра ниже в 1.5-2 раза). Если метеoстанция нахoдится в гoрoде или в лесу, тo скoрoсть ветра занижена на 2-4 м/с пo сравнению с oткрытым местoм. Скoрoсть ветра над акватoриями крупных рек и oзёр, а также на вершинах хoлмoв на 2-5 м/с выше, чем в oбычных услoвиях.
Атмoсфернoе давление в разных тoчках местнoсти мoжет значительнo oтличаться oт давления на метеoстанции, в зависимoсти oт услoвий рельефа (при пoдъёме на 10 м давление пoнижается примернo на 1 мм рт.ст.).